Location: Zagreb
(45.8000°N, 16.0000°E)
Time: 20:58:51
(UTC+01:00)

YUBILEINY - Pass Details

Date: 05 November 2020
Orbit: 1478 x 1509 km, 82.5° (Epoch: 01 December)

Event Time Altitude Azimuth Distance (km) Brightness Sun altitude
Rises 22:50:04 0° 341° (NNW) 4,610 ? -58.5°
Reaches altitude 10° 22:53:52 10° 326° (NW) 3,626 ? -58.7°
Enters shadow 22:55:19 14° 318° (NW) 3,331 ? -58.8°
